Time,TemperatureF,DewpointF,PressureIn,WindDirection,WindDirectionDegrees,WindSpeedMPH,WindSpeedGustMPH,Humidity,HourlyPrecipIn,Conditions,Clouds,dailyrainin,SoftwareType,DateUTC
2013-06-04 00:02:00,59.6,44.8,30.03,East,101,2.0,4.0,58,0.00,,OVC100,0.00,VWS V14.01,2013-06-04 05:02:00,
2013-06-04 00:07:00,59.5,44.7,30.03,ESE,102,2.0,4.0,58,0.00,,OVC100,0.00,VWS V14.01,2013-06-04 05:07:00,
2013-06-04 00:12:00,59.5,44.3,30.02,East,101,3.0,4.0,57,0.00,,OVC100,0.00,VWS V14.01,2013-06-04 05:12:00,
2013-06-04 00:17:00,59.6,43.9,30.02,ESE,110,4.0,5.0,56,0.00,,OVC100,0.00,VWS V14.01,2013-06-04 05:17:00,
2013-06-04 00:22:00,59.5,43.8,30.02,East,99,5.0,7.0,56,0.00,,OVC100,0.00,VWS V14.01,2013-06-04 05:22:00,
2013-06-04 00:27:00,59.5,43.8,30.01,ESE,102,4.0,7.0,56,0.00,,OVC100,0.00,VWS V14.01,2013-06-04 05:27:00,
2013-06-04 00:32:00,59.3,43.2,30.01,East,95,5.0,7.0,55,0.00,,OVC100,0.00,VWS V14.01,2013-06-04 05:32:00,
2013-06-04 00:37:00,59.3,42.7,30.01,East,101,4.0,7.0,54,0.00,,OVC100,0.00,VWS V14.01,2013-06-04 05:37:00,
2013-06-04 00:42:00,59.3,42.2,30.01,ESE,103,4.0,7.0,53,0.00,,OVC100,0.00,VWS V14.01,2013-06-04 05:42:00,
2013-06-04 00:47:00,59.3,42.2,30.01,East,99,3.0,7.0,53,0.00,,OVC100,0.00,VWS V14.01,2013-06-04 05:47:00,
2013-06-04 00:52:00,59.2,42.1,30.00,ESE,107,4.0,7.0,53,0.00,,OVC100,0.00,VWS V14.01,2013-06-04 05:52:00,
2013-06-04 00:57:00,59.1,42.0,30.00,ESE,102,4.0,7.0,53,0.00,,OVC100,0.00,VWS V14.01,2013-06-04 05:57:00,
2013-06-04 01:02:00,58.9,41.8,30.00,ESE,103,4.0,5.0,53,0.00,,OVC100,0.00,VWS V14.01,2013-06-04 06:02:00,
2013-06-04 01:07:00,58.8,42.2,30.00,ESE,107,2.0,5.0,54,0.00,,OVC100,0.00,VWS V14.01,2013-06-04 06:07:00,
2013-06-04 01:12:00,58.7,42.1,29.99,East,97,3.0,5.0,54,0.00,,OVC100,0.00,VWS V14.01,2013-06-04 06:12:00,
2013-06-04 01:17:00,58.6,42.0,29.99,ESE,105,2.0,5.0,54,0.00,,OVC100,0.00,VWS V14.01,2013-06-04 06:17:00,
2013-06-04 01:22:00,58.5,41.9,29.99,ESE,105,3.0,5.0,54,0.00,,OVC100,0.00,VWS V14.01,2013-06-04 06:22:00,
2013-06-04 01:27:00,58.4,41.8,29.99,East,101,3.0,5.0,54,0.00,,OVC100,0.00,VWS V14.01,2013-06-04 06:27:00,
2013-06-04 01:32:00,58.3,42.2,29.99,East,96,2.0,4.0,55,0.00,,OVC100,0.00,VWS V14.01,2013-06-04 06:32:00,
2013-06-04 01:37:00,58.2,42.1,29.99,ESE,114,0.0,4.0,55,0.00,,OVC110,0.00,VWS V14.01,2013-06-04 06:37:00,
2013-06-04 01:42:00,58.2,42.1,29.99,ESE,117,3.0,4.0,55,0.00,,OVC110,0.00,VWS V14.01,2013-06-04 06:42:00,
2013-06-04 01:47:00,58.1,42.0,29.98,East,95,3.0,4.0,55,0.00,,OVC110,0.00,VWS V14.01,2013-06-04 06:47:00,
2013-06-04 01:52:00,58.0,41.9,29.98,ESE,104,3.0,5.0,55,0.00,,OVC110,0.00,VWS V14.01,2013-06-04 06:52:00,
2013-06-04 01:57:00,57.9,42.3,29.98,East,98,3.0,6.0,56,0.00,,OVC110,0.00,VWS V14.01,2013-06-04 06:57:00,
2013-06-04 02:02:00,57.8,42.2,29.99,ESE,105,1.0,5.0,56,0.00,,OVC110,0.00,VWS V14.01,2013-06-04 07:02:00,
2013-06-04 02:07:00,57.7,42.6,29.99,ESE,107,2.0,5.0,57,0.00,,OVC110,0.00,VWS V14.01,2013-06-04 07:07:00,
2013-06-04 02:12:00,57.7,42.1,30.00,East,99,1.0,5.0,56,0.00,,OVC110,0.00,VWS V14.01,2013-06-04 07:12:00,
2013-06-04 02:17:00,57.8,42.2,30.00,ESE,104,1.0,5.0,56,0.00,,OVC110,0.00,VWS V14.01,2013-06-04 07:17:00,
2013-06-04 02:22:00,57.8,42.2,30.01,ENE,73,2.0,5.0,56,0.00,,OVC110,0.00,VWS V14.01,2013-06-04 07:22:00,
2013-06-04 02:27:00,57.8,42.2,30.01,East,91,0.0,5.0,56,0.00,,OVC110,0.00,VWS V14.01,2013-06-04 07:27:00,
2013-06-04 02:32:00,57.8,41.8,30.01,East,79,1.0,3.0,55,0.00,,OVC100,0.00,VWS V14.01,2013-06-04 07:32:00,
2013-06-04 02:37:00,57.7,42.1,30.01,ENE,71,0.0,3.0,56,0.00,,OVC100,0.00,VWS V14.01,2013-06-04 07:37:00,
2013-06-04 02:42:00,57.6,42.0,30.02,ENE,71,0.0,3.0,56,0.00,,OVC100,0.00,VWS V14.01,2013-06-04 07:42:00,
2013-06-04 02:47:00,57.5,41.9,30.03,ENE,71,0.0,3.0,56,0.00,,OVC100,0.00,VWS V14.01,2013-06-04 07:47:00,
2013-06-04 02:52:00,57.4,41.8,30.03,ENE,70,0.0,3.0,56,0.00,,OVC110,0.00,VWS V14.01,2013-06-04 07:52:00,
2013-06-04 02:57:00,57.3,41.8,30.03,ENE,68,0.0,3.0,56,0.00,,OVC110,0.00,VWS V14.01,2013-06-04 07:57:00,
2013-06-04 03:02:00,57.1,42.0,30.03,ENE,68,0.0,0.0,57,0.00,,OVC110,0.00,VWS V14.01,2013-06-04 08:02:00,
2013-06-04 03:07:00,57.0,41.9,30.04,ENE,68,0.0,1.0,57,0.00,,OVC110,0.00,VWS V14.01,2013-06-04 08:07:00,
2013-06-04 03:12:00,57.0,42.4,30.04,ENE,68,0.0,1.0,58,0.00,,OVC110,0.00,VWS V14.01,2013-06-04 08:12:00,
2013-06-04 03:17:00,56.8,42.2,30.04,ENE,60,1.0,2.0,58,0.00,,OVC110,0.00,VWS V14.01,2013-06-04 08:17:00,
2013-06-04 03:22:00,56.8,41.8,30.03,ENE,59,1.0,2.0,57,0.00,,OVC110,0.00,VWS V14.01,2013-06-04 08:22:00,
2013-06-04 03:27:00,56.8,41.8,30.03,ENE,63,6.0,6.0,57,0.00,,OVC110,0.00,VWS V14.01,2013-06-04 08:27:00,
2013-06-04 03:32:00,56.9,41.4,30.03,ENE,78,6.0,7.0,56,0.00,,OVC100,0.00,VWS V14.01,2013-06-04 08:32:00,
2013-06-04 03:37:00,57.0,41.5,30.03,NE,56,3.0,8.0,56,0.00,,OVC100,0.00,VWS V14.01,2013-06-04 08:37:00,
2013-06-04 03:42:00,57.0,41.9,30.03,ENE,68,3.0,8.0,57,0.00,,OVC100,0.00,VWS V14.01,2013-06-04 08:42:00,
2013-06-04 03:47:00,56.9,41.8,30.04,ENE,65,2.0,8.0,57,0.00,,OVC100,0.00,VWS V14.01,2013-06-04 08:47:00,
2013-06-04 03:52:00,56.8,41.3,30.05,ENE,68,0.0,8.0,56,0.00,,BKN110,0.00,VWS V14.01,2013-06-04 08:52:00,
2013-06-04 03:57:00,56.8,41.3,30.05,ENE,68,1.0,8.0,56,0.00,,BKN110,0.00,VWS V14.01,2013-06-04 08:57:00,
2013-06-04 04:02:00,56.7,41.2,30.05,ENE,68,0.0,2.0,56,0.00,,BKN110,0.00,VWS V14.01,2013-06-04 09:02:00,
2013-06-04 04:07:00,56.4,41.4,30.05,ENE,64,1.0,2.0,57,0.00,,BKN110,0.00,VWS V14.01,2013-06-04 09:07:00,
2013-06-04 04:12:00,56.3,41.7,30.04,ENE,68,4.0,5.0,58,0.00,,BKN110,0.00,VWS V14.01,2013-06-04 09:12:00,
2013-06-04 04:17:00,56.2,40.7,30.02,ENE,75,6.0,8.0,56,0.00,,BKN110,0.00,VWS V14.01,2013-06-04 09:17:00,
2013-06-04 04:22:00,56.2,41.2,30.02,ENE,71,7.0,8.0,57,0.00,,BKN110,0.00,VWS V14.01,2013-06-04 09:22:00,
2013-06-04 04:27:00,55.9,40.9,30.02,ENE,77,4.0,8.0,57,0.00,,BKN110,0.00,VWS V14.01,2013-06-04 09:27:00,
2013-06-04 04:32:00,55.6,41.1,30.02,ENE,73,2.0,5.0,58,0.00,,OVC110,0.00,VWS V14.01,2013-06-04 09:32:00,
2013-06-04 04:37:00,55.2,41.1,30.02,ENE,67,5.0,5.0,59,0.00,,OVC110,0.00,VWS V14.01,2013-06-04 09:37:00,
2013-06-04 04:42:00,55.0,41.0,30.02,NE,56,3.0,6.0,59,0.00,,OVC110,0.00,VWS V14.01,2013-06-04 09:42:00,
2013-06-04 04:47:00,54.8,41.2,30.02,ENE,64,2.0,6.0,60,0.00,,OVC110,0.00,VWS V14.01,2013-06-04 09:47:00,
2013-06-04 04:52:00,54.6,41.4,30.01,East,79,4.0,6.0,61,0.00,,SCT110,0.00,VWS V14.01,2013-06-04 09:52:00,
2013-06-04 04:57:00,54.4,41.7,30.01,ENE,72,4.0,6.0,62,0.00,,SCT110,0.00,VWS V14.01,2013-06-04 09:57:00,
2013-06-04 05:02:00,54.3,41.6,30.01,ENE,71,5.0,5.0,62,0.00,,SCT110,0.00,VWS V14.01,2013-06-04 10:02:00,
2013-06-04 05:07:00,54.2,41.5,30.01,ENE,73,1.0,5.0,62,0.00,,SCT110,0.00,VWS V14.01,2013-06-04 10:07:00,
2013-06-04 05:12:00,54.2,41.9,30.02,East,83,0.0,5.0,63,0.00,,SCT110,0.00,VWS V14.01,2013-06-04 10:12:00,
2013-06-04 05:17:00,54.0,41.7,30.01,ENE,58,1.0,5.0,63,0.00,,SCT110,0.00,VWS V14.01,2013-06-04 10:17:00,
2013-06-04 05:22:00,53.8,41.9,30.01,ENE,73,3.0,5.0,64,0.00,,SCT110,0.00,VWS V14.01,2013-06-04 10:22:00,
2013-06-04 05:27:00,53.7,41.8,30.00,East,79,4.0,6.0,64,0.00,,SCT110,0.00,VWS V14.01,2013-06-04 10:27:00,
2013-06-04 05:32:00,53.8,41.9,30.00,East,79,7.0,8.0,64,0.00,,SCT100,0.00,VWS V14.01,2013-06-04 10:32:00,
2013-06-04 05:37:00,53.9,41.6,30.00,ENE,74,9.0,9.0,63,0.00,,SCT100,0.00,VWS V14.01,2013-06-04 10:37:00,
2013-06-04 05:42:00,53.9,41.6,30.00,ENE,68,5.0,9.0,63,0.00,,SCT100,0.00,VWS V14.01,2013-06-04 10:42:00,
2013-06-04 05:47:00,54.0,41.7,30.00,ENE,74,4.0,9.0,63,0.00,,SCT100,0.00,VWS V14.01,2013-06-04 10:47:00,
2013-06-04 05:52:00,53.9,42.0,30.00,East,94,6.0,9.0,64,0.00,,SCT110,0.00,VWS V14.01,2013-06-04 10:52:00,
2013-06-04 05:57:00,53.9,42.0,30.00,East,79,5.0,9.0,64,0.00,,SCT110,0.00,VWS V14.01,2013-06-04 10:57:00,
2013-06-04 06:02:00,53.9,42.0,30.00,East,82,5.0,9.0,64,0.00,,SCT110,0.00,VWS V14.01,2013-06-04 11:02:00,
2013-06-04 06:07:00,53.9,42.4,30.00,East,87,6.0,9.0,65,0.00,,SCT110,0.00,VWS V14.01,2013-06-04 11:07:00,
2013-06-04 06:12:00,54.0,42.5,30.00,NE,56,5.0,9.0,65,0.00,,SCT110,0.00,VWS V14.01,2013-06-04 11:12:00,
2013-06-04 06:17:00,54.0,42.5,29.99,East,100,2.0,9.0,65,0.00,,SCT110,0.00,VWS V14.01,2013-06-04 11:17:00,
2013-06-04 06:22:00,54.1,43.0,29.98,ENE,73,5.0,9.0,66,0.00,,SCT110,0.00,VWS V14.01,2013-06-04 11:22:00,
2013-06-04 06:27:00,54.1,43.0,29.98,East,100,8.0,10.0,66,0.00,,SCT110,0.00,VWS V14.01,2013-06-04 11:27:00,
2013-06-04 06:32:00,54.2,43.5,29.98,East,80,6.0,9.0,67,0.00,,CLR,0.00,VWS V14.01,2013-06-04 11:32:00,
2013-06-04 06:37:00,54.3,43.6,29.98,East,101,5.0,9.0,67,0.00,,CLR,0.00,VWS V14.01,2013-06-04 11:37:00,
2013-06-04 06:42:00,54.5,43.8,29.99,ENE,71,7.0,9.0,67,0.00,,CLR,0.00,VWS V14.01,2013-06-04 11:42:00,
2013-06-04 06:47:00,54.8,43.7,29.99,ESE,105,3.0,9.0,66,0.00,,CLR,0.00,VWS V14.01,2013-06-04 11:47:00,
2013-06-04 06:52:00,55.0,43.9,29.99,ESE,105,4.0,9.0,66,0.00,,CLR,0.00,VWS V14.01,2013-06-04 11:52:00,
2013-06-04 06:57:00,55.3,43.8,30.00,East,100,4.0,9.0,65,0.00,,CLR,0.00,VWS V14.01,2013-06-04 11:57:00,
2013-06-04 07:02:00,55.4,44.2,30.00,ESE,111,4.0,6.0,66,0.00,,CLR,0.00,VWS V14.01,2013-06-04 12:02:00,
2013-06-04 07:07:00,55.6,44.0,30.01,ESE,121,3.0,7.0,65,0.00,,CLR,0.00,VWS V14.01,2013-06-04 12:07:00,
2013-06-04 07:12:00,55.8,44.2,30.01,ESE,113,3.0,7.0,65,0.00,,CLR,0.00,VWS V14.01,2013-06-04 12:12:00,
2013-06-04 07:17:00,55.9,44.3,30.02,ESE,103,3.0,7.0,65,0.00,,CLR,0.00,VWS V14.01,2013-06-04 12:17:00,
2013-06-04 07:22:00,56.0,44.4,30.02,ESE,117,3.0,7.0,65,0.00,,CLR,0.00,VWS V14.01,2013-06-04 12:22:00,
2013-06-04 07:27:00,56.1,44.5,30.02,East,101,2.0,7.0,65,0.00,,CLR,0.00,VWS V14.01,2013-06-04 12:27:00,
2013-06-04 07:32:00,56.2,44.6,30.02,ESE,113,6.0,7.0,65,0.00,,SCT110,0.00,VWS V14.01,2013-06-04 12:32:00,
2013-06-04 07:37:00,56.2,44.6,30.02,ESE,108,4.0,7.0,65,0.00,,OVC110,0.00,VWS V14.01,2013-06-04 12:37:00,
2013-06-04 07:42:00,56.2,45.0,30.02,ESE,105,4.0,7.0,66,0.00,,OVC110,0.00,VWS V14.01,2013-06-04 12:42:00,
2013-06-04 07:47:00,56.1,45.3,30.02,East,94,4.0,7.0,67,0.00,,OVC110,0.00,VWS V14.01,2013-06-04 12:47:00,
2013-06-04 07:52:00,56.1,45.3,30.03,ESE,103,3.0,7.0,67,0.00,,OVC110,0.00,VWS V14.01,2013-06-04 12:52:00,
2013-06-04 07:57:00,56.1,45.3,30.02,East,99,5.0,8.0,67,0.00,,OVC110,0.00,VWS V14.01,2013-06-04 12:57:00,
2013-06-04 08:02:00,56.1,45.7,30.01,ESE,105,9.0,9.0,68,0.00,,OVC110,0.00,VWS V14.01,2013-06-04 13:02:00,
2013-06-04 08:07:00,56.1,45.7,30.01,ESE,105,5.0,10.0,68,0.00,,OVC110,0.00,VWS V14.01,2013-06-04 13:07:00,
2013-06-04 08:12:00,56.1,45.7,30.01,ESE,104,4.0,10.0,68,0.00,,OVC110,0.00,VWS V14.01,2013-06-04 13:12:00,
2013-06-04 08:17:00,56.2,45.8,30.02,ESE,104,6.0,10.0,68,0.00,,OVC110,0.00,VWS V14.01,2013-06-04 13:17:00,
2013-06-04 08:22:00,56.2,45.8,30.01,ESE,113,5.0,10.0,68,0.00,,OVC110,0.00,VWS V14.01,2013-06-04 13:22:00,
2013-06-04 08:27:00,56.3,45.9,30.01,ESE,116,6.0,10.0,68,0.00,,OVC110,0.00,VWS V14.01,2013-06-04 13:27:00,
2013-06-04 08:32:00,56.3,46.3,30.01,ESE,104,4.0,7.0,69,0.00,,OVC110,0.00,VWS V14.01,2013-06-04 13:32:00,
2013-06-04 08:37:00,56.2,46.9,30.02,ESE,106,3.0,7.0,71,0.00,,OVC100,0.00,VWS V14.01,2013-06-04 13:37:00,
2013-06-04 08:42:00,56.1,46.8,30.02,ESE,104,5.0,7.0,71,0.00,,OVC100,0.00,VWS V14.01,2013-06-04 13:42:00,
2013-06-04 08:47:00,56.1,47.2,30.03,East,101,3.0,7.0,72,0.00,,OVC100,0.00,VWS V14.01,2013-06-04 13:47:00,
2013-06-04 08:52:00,56.1,46.8,30.03,East,98,4.0,7.0,71,0.00,,OVC090,0.00,VWS V14.01,2013-06-04 13:52:00,
2013-06-04 08:57:00,56.2,47.3,30.03,ESE,111,5.0,7.0,72,0.00,,OVC090,0.00,VWS V14.01,2013-06-04 13:57:00,
2013-06-04 09:02:00,56.2,47.3,30.04,ESE,105,2.0,6.0,72,0.00,,OVC090,0.00,VWS V14.01,2013-06-04 14:02:00,
2013-06-04 09:07:00,56.3,47.4,30.04,East,101,3.0,6.0,72,0.00,,OVC090,0.00,VWS V14.01,2013-06-04 14:07:00,
2013-06-04 09:12:00,56.4,47.5,30.05,ESE,107,2.0,6.0,72,0.00,,OVC090,0.00,VWS V14.01,2013-06-04 14:12:00,
2013-06-04 09:17:00,56.5,47.6,30.05,ESE,117,3.0,6.0,72,0.00,,OVC090,0.00,VWS V14.01,2013-06-04 14:17:00,
2013-06-04 09:22:00,56.6,47.7,30.05,ESE,102,4.0,6.0,72,0.00,,OVC090,0.00,VWS V14.01,2013-06-04 14:22:00,
2013-06-04 09:27:00,56.6,48.1,30.05,East,87,4.0,6.0,73,0.00,,OVC090,0.00,VWS V14.01,2013-06-04 14:27:00,
2013-06-04 09:32:00,56.7,48.2,30.06,ENE,76,3.0,4.0,73,0.00,,OVC090,0.00,VWS V14.01,2013-06-04 14:32:00,
2013-06-04 09:37:00,56.8,48.2,30.06,ENE,71,4.0,9.0,73,0.00,,OVC090,0.00,VWS V14.01,2013-06-04 14:37:00,
2013-06-04 09:42:00,56.8,48.2,30.06,ENE,58,2.0,9.0,73,0.00,,OVC090,0.00,VWS V14.01,2013-06-04 14:42:00,
2013-06-04 09:47:00,56.8,48.6,30.06,ENE,57,1.0,9.0,74,0.00,,OVC090,0.00,VWS V14.01,2013-06-04 14:47:00,
2013-06-04 09:52:00,56.7,48.5,30.05,East,86,5.0,9.0,74,0.00,,OVC090,0.00,VWS V14.01,2013-06-04 14:52:00,
2013-06-04 09:57:00,56.8,48.6,30.06,East,96,4.0,9.0,74,0.00,,OVC090,0.00,VWS V14.01,2013-06-04 14:57:00,
2013-06-04 10:02:00,56.9,48.7,30.06,ENE,67,4.0,8.0,74,0.00,,OVC090,0.00,VWS V14.01,2013-06-04 15:02:00,
2013-06-04 10:07:00,57.1,49.3,30.05,ENE,72,6.0,9.0,75,0.00,,OVC090,0.00,VWS V14.01,2013-06-04 15:07:00,
2013-06-04 10:12:00,57.3,49.1,30.05,ENE,61,5.0,9.0,74,0.00,,OVC090,0.00,VWS V14.01,2013-06-04 15:12:00,
2013-06-04 10:17:00,57.4,49.2,30.06,ENE,57,2.0,9.0,74,0.00,,OVC090,0.00,VWS V14.01,2013-06-04 15:17:00,
2013-06-04 10:22:00,57.5,49.3,30.05,ENE,68,6.0,9.0,74,0.00,,OVC090,0.00,VWS V14.01,2013-06-04 15:22:00,
2013-06-04 10:27:00,57.6,49.4,30.05,East,80,7.0,9.0,74,0.00,,OVC090,0.00,VWS V14.01,2013-06-04 15:27:00,
2013-06-04 10:32:00,57.7,49.1,30.05,East,101,4.0,9.0,73,0.00,,OVC090,0.00,VWS V14.01,2013-06-04 15:32:00,
2013-06-04 10:37:00,57.9,49.3,30.06,ENE,71,6.0,9.0,73,0.00,,OVC090,0.00,VWS V14.01,2013-06-04 15:37:00,
2013-06-04 10:42:00,58.0,49.8,30.06,ENE,60,3.0,9.0,74,0.00,,OVC090,0.00,VWS V14.01,2013-06-04 15:42:00,
2013-06-04 10:47:00,58.1,49.9,30.07,ENE,76,2.0,9.0,74,0.00,,OVC090,0.00,VWS V14.01,2013-06-04 15:47:00,
2013-06-04 10:52:00,58.3,50.4,30.07,East,87,2.0,9.0,75,0.00,,OVC090,0.00,VWS V14.01,2013-06-04 15:52:00,
2013-06-04 10:57:00,58.4,50.2,30.07,East,82,5.0,9.0,74,0.00,,OVC090,0.00,VWS V14.01,2013-06-04 15:57:00,
2013-06-04 11:02:00,58.5,50.6,30.07,ENE,64,6.0,6.0,75,0.00,,OVC090,0.00,VWS V14.01,2013-06-04 16:02:00,
2013-06-04 11:07:00,58.6,50.7,30.07,East,99,3.0,7.0,75,0.00,,OVC090,0.00,VWS V14.01,2013-06-04 16:07:00,
2013-06-04 11:12:00,58.8,50.9,30.07,East,96,4.0,8.0,75,0.00,,OVC090,0.00,VWS V14.01,2013-06-04 16:12:00,
2013-06-04 11:17:00,59.1,51.5,30.07,ESE,102,4.0,8.0,76,0.00,,OVC090,0.00,VWS V14.01,2013-06-04 16:17:00,
2013-06-04 11:22:00,59.4,51.1,30.07,East,98,5.0,8.0,74,0.00,,OVC090,0.00,VWS V14.01,2013-06-04 16:22:00,
2013-06-04 11:27:00,59.7,51.4,30.07,ESE,106,4.0,8.0,74,0.00,,OVC090,0.00,VWS V14.01,2013-06-04 16:27:00,
2013-06-04 11:32:00,59.7,51.8,30.07,ENE,76,4.0,6.0,75,0.00,,OVC090,0.00,VWS V14.01,2013-06-04 16:32:00,
2013-06-04 11:37:00,59.8,51.9,30.07,ESE,122,2.0,6.0,75,0.00,,OVC090,0.00,VWS V14.01,2013-06-04 16:37:00,
2013-06-04 11:42:00,59.9,52.7,30.07,East,89,5.0,7.0,77,0.00,,OVC090,0.00,VWS V14.01,2013-06-04 16:42:00,
2013-06-04 11:47:00,59.9,52.7,30.06,East,96,3.0,7.0,77,0.00,,OVC090,0.00,VWS V14.01,2013-06-04 16:47:00,
2013-06-04 11:52:00,60.0,52.8,30.07,East,100,4.0,7.0,77,0.00,,OVC080,0.00,VWS V14.01,2013-06-04 16:52:00,
2013-06-04 11:57:00,60.2,53.0,30.06,ESE,105,4.0,8.0,77,0.00,,OVC080,0.00,VWS V14.01,2013-06-04 16:57:00,
2013-06-04 12:02:00,60.5,53.6,30.06,ESE,105,4.0,6.0,78,0.00,,OVC080,0.00,VWS V14.01,2013-06-04 17:02:00,
2013-06-04 12:07:00,60.9,54.0,30.05,East,99,6.0,7.0,78,0.00,,OVC080,0.00,VWS V14.01,2013-06-04 17:07:00,
2013-06-04 12:12:00,61.2,53.6,30.05,East,100,4.0,9.0,76,0.00,,OVC080,0.00,VWS V14.01,2013-06-04 17:12:00,
2013-06-04 12:17:00,61.6,53.2,30.05,ESE,103,7.0,11.0,74,0.00,,OVC080,0.00,VWS V14.01,2013-06-04 17:17:00,
2013-06-04 12:22:00,62.0,53.6,30.05,ESE,118,6.0,11.0,74,0.00,,OVC080,0.00,VWS V14.01,2013-06-04 17:22:00,
2013-06-04 12:27:00,62.2,52.3,30.04,SE,139,6.0,15.0,70,0.00,,OVC080,0.00,VWS V14.01,2013-06-04 17:27:00,
2013-06-04 12:32:00,62.4,52.9,30.04,SE,124,7.0,11.0,71,0.00,,BKN090,0.00,VWS V14.01,2013-06-04 17:32:00,
2013-06-04 12:37:00,62.6,52.3,30.04,East,99,6.0,14.0,69,0.00,,BKN090,0.00,VWS V14.01,2013-06-04 17:37:00,
2013-06-04 12:42:00,62.7,52.4,30.04,ESE,122,8.0,14.0,69,0.00,,BKN090,0.00,VWS V14.01,2013-06-04 17:42:00,
2013-06-04 12:47:00,62.8,52.1,30.04,ESE,115,9.0,14.0,68,0.00,,BKN090,0.00,VWS V14.01,2013-06-04 17:47:00,
2013-06-04 12:52:00,62.8,51.7,30.03,ESE,110,8.0,14.0,67,0.00,,BKN100,0.00,VWS V14.01,2013-06-04 17:52:00,
2013-06-04 12:57:00,62.8,51.7,30.03,SE,142,3.0,14.0,67,0.00,,BKN100,0.00,VWS V14.01,2013-06-04 17:57:00,
2013-06-04 13:02:00,63.0,52.3,30.03,ESE,116,12.0,12.0,68,0.00,,BKN100,0.00,VWS V14.01,2013-06-04 18:02:00,
2013-06-04 13:07:00,63.1,52.0,30.03,ESE,110,12.0,12.0,67,0.00,,BKN100,0.00,VWS V14.01,2013-06-04 18:07:00,
2013-06-04 13:12:00,63.1,51.6,30.04,ESE,116,7.0,12.0,66,0.00,,BKN100,0.00,VWS V14.01,2013-06-04 18:12:00,
2013-06-04 13:17:00,63.2,51.7,30.04,ESE,122,8.0,12.0,66,0.00,,BKN100,0.00,VWS V14.01,2013-06-04 18:17:00,
2013-06-04 13:22:00,63.0,51.1,30.04,SSE,157,2.0,12.0,65,0.00,,BKN100,0.00,VWS V14.01,2013-06-04 18:22:00,
2013-06-04 13:27:00,62.9,51.4,30.04,SE,126,6.0,14.0,66,0.00,,BKN100,0.00,VWS V14.01,2013-06-04 18:27:00,
2013-06-04 13:32:00,62.8,50.9,30.03,ESE,109,5.0,13.0,65,0.00,,OVC100,0.00,VWS V14.01,2013-06-04 18:32:00,
2013-06-04 13:37:00,62.7,50.8,30.03,SE,134,2.0,13.0,65,0.00,,OVC100,0.00,VWS V14.01,2013-06-04 18:37:00,
2013-06-04 13:42:00,62.8,50.9,30.04,SE,139,4.0,13.0,65,0.00,,OVC100,0.00,VWS V14.01,2013-06-04 18:42:00,
2013-06-04 13:47:00,63.2,52.1,30.04,SE,139,6.0,13.0,67,0.00,,OVC100,0.00,VWS V14.01,2013-06-04 18:47:00,
2013-06-04 13:52:00,63.3,51.8,30.04,ESE,107,11.0,13.0,66,0.00,,OVC100,0.00,VWS V14.01,2013-06-04 18:52:00,
2013-06-04 13:57:00,63.0,51.5,30.04,ESE,115,5.0,13.0,66,0.00,,OVC100,0.00,VWS V14.01,2013-06-04 18:57:00,
2013-06-04 14:02:00,63.0,51.5,30.03,ESE,110,9.0,12.0,66,0.00,,OVC100,0.00,VWS V14.01,2013-06-04 19:02:00,
2013-06-04 14:07:00,62.8,51.7,30.03,SE,128,5.0,14.0,67,0.00,,OVC100,0.00,VWS V14.01,2013-06-04 19:07:00,
2013-06-04 14:12:00,62.7,51.6,30.03,SE,125,9.0,14.0,67,0.00,,OVC100,0.00,VWS V14.01,2013-06-04 19:12:00,
2013-06-04 14:17:00,62.8,52.1,30.03,SE,142,4.0,14.0,68,0.00,,OVC100,0.00,VWS V14.01,2013-06-04 19:17:00,
2013-06-04 14:22:00,62.9,51.8,30.03,ESE,106,9.0,14.0,67,0.00,,OVC100,0.00,VWS V14.01,2013-06-04 19:22:00,
2013-06-04 14:27:00,62.6,51.5,30.03,ESE,114,9.0,15.0,67,0.00,,OVC100,0.00,VWS V14.01,2013-06-04 19:27:00,
2013-06-04 14:32:00,62.5,51.4,30.03,ESE,122,3.0,13.0,67,0.00,,OVC100,0.00,VWS V14.01,2013-06-04 19:32:00,
2013-06-04 14:37:00,62.4,51.7,30.03,SE,139,3.0,13.0,68,0.00,,OVC100,0.00,VWS V14.01,2013-06-04 19:37:00,
2013-06-04 14:42:00,62.4,51.7,30.03,SE,128,4.0,13.0,68,0.00,,OVC100,0.00,VWS V14.01,2013-06-04 19:42:00,
2013-06-04 14:47:00,62.4,51.3,30.03,SE,129,6.0,16.0,67,0.00,,OVC100,0.00,VWS V14.01,2013-06-04 19:47:00,
2013-06-04 14:52:00,62.6,51.5,30.03,SE,142,7.0,16.0,67,0.00,,OVC090,0.00,VWS V14.01,2013-06-04 19:52:00,
2013-06-04 14:57:00,62.5,51.4,30.03,SE,128,5.0,16.0,67,0.00,,OVC090,0.00,VWS V14.01,2013-06-04 19:57:00,
2013-06-04 15:02:00,62.6,51.5,30.03,SE,126,4.0,13.0,67,0.00,,OVC090,0.00,VWS V14.01,2013-06-04 20:02:00,
2013-06-04 15:07:00,62.5,51.4,30.03,ESE,115,10.0,16.0,67,0.00,,OVC090,0.00,VWS V14.01,2013-06-04 20:07:00,
2013-06-04 15:12:00,63.1,52.0,30.04,ESE,122,7.0,16.0,67,0.00,,OVC090,0.00,VWS V14.01,2013-06-04 20:12:00,
2013-06-04 15:17:00,63.3,52.2,30.04,ESE,110,10.0,16.0,67,0.00,,OVC090,0.00,VWS V14.01,2013-06-04 20:17:00,
2013-06-04 15:22:00,63.1,52.0,30.04,East,96,12.0,16.0,67,0.00,,OVC090,0.00,VWS V14.01,2013-06-04 20:22:00,
2013-06-04 15:27:00,63.1,51.6,30.04,SE,131,3.0,16.0,66,0.00,,OVC090,0.00,VWS V14.01,2013-06-04 20:27:00,
2013-06-04 15:32:00,62.9,51.4,30.05,ESE,105,9.0,9.0,66,0.00,,OVC090,0.00,VWS V14.01,2013-06-04 20:32:00,
2013-06-04 15:37:00,62.5,51.0,30.05,ESE,110,11.0,13.0,66,0.00,,OVC090,0.00,VWS V14.01,2013-06-04 20:37:00,
2013-06-04 15:42:00,62.1,51.0,30.05,SE,125,3.0,13.0,67,0.00,,OVC090,0.00,VWS V14.01,2013-06-04 20:42:00,
2013-06-04 15:47:00,62.0,51.3,30.05,ESE,113,3.0,13.0,68,0.00,,OVC090,0.00,VWS V14.01,2013-06-04 20:47:00,
2013-06-04 15:52:00,62.0,51.3,30.05,SE,124,3.0,13.0,68,0.00,,OVC090,0.00,VWS V14.01,2013-06-04 20:52:00,
2013-06-04 15:57:00,61.9,51.6,30.05,ESE,111,5.0,13.0,69,0.00,,OVC090,0.00,VWS V14.01,2013-06-04 20:57:00,
2013-06-04 16:02:00,61.8,51.5,30.05,ESE,115,8.0,12.0,69,0.00,,OVC090,0.00,VWS V14.01,2013-06-04 21:02:00,
2013-06-04 16:07:00,61.7,51.4,30.05,SE,146,4.0,14.0,69,0.00,,OVC090,0.00,VWS V14.01,2013-06-04 21:07:00,
2013-06-04 16:12:00,61.7,51.8,30.05,ESE,118,4.0,14.0,70,0.00,,OVC090,0.00,VWS V14.01,2013-06-04 21:12:00,
2013-06-04 16:18:00,61.8,51.1,30.05,ESE,110,2.0,14.0,68,0.00,,OVC090,0.00,VWS V14.01,2013-06-04 21:18:00,
2013-06-04 16:23:00,61.7,51.4,30.05,SE,143,3.0,14.0,69,0.00,,OVC090,0.00,VWS V14.01,2013-06-04 21:23:00,
2013-06-04 16:28:00,61.5,50.5,30.04,SE,135,6.0,14.0,67,0.00,,OVC090,0.00,VWS V14.01,2013-06-04 21:28:00,
2013-06-04 16:33:00,61.3,50.7,30.04,ESE,111,4.0,7.0,68,0.00,,OVC090,0.00,VWS V14.01,2013-06-04 21:33:00,
2013-06-04 16:38:00,61.1,50.5,30.04,SE,134,4.0,7.0,68,0.00,,OVC090,0.00,VWS V14.01,2013-06-04 21:38:00,
2013-06-04 16:43:00,60.9,49.5,30.04,SE,138,7.0,11.0,66,0.00,,OVC090,0.00,VWS V14.01,2013-06-04 21:43:00,
2013-06-04 16:48:00,60.7,49.7,30.04,SSW,193,5.0,11.0,67,0.00,,OVC090,0.00,VWS V14.01,2013-06-04 21:48:00,
2013-06-04 16:53:00,60.3,50.5,30.04,SE,134,4.0,11.0,70,0.00,,OVC070,0.00,VWS V14.01,2013-06-04 21:53:00,
2013-06-04 16:57:00,59.5,50.1,30.04,SE,131,5.0,11.0,71,0.01,,OVC070,0.01,VWS V14.01,2013-06-04 21:57:00,
2013-06-04 17:02:00,58.9,49.9,30.04,SE,131,5.0,12.0,72,0.01,,OVC070,0.01,VWS V14.01,2013-06-04 22:02:00,
2013-06-04 17:07:00,58.7,49.7,30.04,SE,128,1.0,12.0,72,0.01,,OVC070,0.01,VWS V14.01,2013-06-04 22:07:00,
2013-06-04 17:12:00,58.6,49.6,30.04,SE,138,2.0,12.0,72,0.01,,OVC070,0.01,VWS V14.01,2013-06-04 22:12:00,
2013-06-04 17:17:00,58.6,50.0,30.04,ESE,106,5.0,12.0,73,0.01,,OVC070,0.01,VWS V14.01,2013-06-04 22:17:00,
2013-06-04 17:22:00,58.6,50.7,30.04,ESE,115,3.0,12.0,75,0.01,,OVC070,0.01,VWS V14.01,2013-06-04 22:22:00,
2013-06-04 17:27:00,58.6,50.7,30.04,ESE,120,6.0,12.0,75,0.01,,OVC070,0.01,VWS V14.01,2013-06-04 22:27:00,
2013-06-04 17:32:00,58.5,50.6,30.03,ESE,104,6.0,10.0,75,0.01,,-RA,0.01,VWS V14.01,2013-06-04 22:32:00,
2013-06-04 17:37:00,58.4,50.2,30.03,SE,146,7.0,13.0,74,0.01,,-RA,0.01,VWS V14.01,2013-06-04 22:37:00,
2013-06-04 17:42:00,58.4,49.4,30.03,ESE,120,5.0,13.0,72,0.01,,-RA,0.01,VWS V14.01,2013-06-04 22:42:00,
2013-06-04 17:47:00,58.4,49.4,30.03,ESE,114,9.0,15.0,72,0.01,,-RA,0.01,VWS V14.01,2013-06-04 22:47:00,
2013-06-04 17:52:00,58.4,49.4,30.02,ESE,120,7.0,15.0,72,0.01,,-RA,0.01,VWS V14.01,2013-06-04 22:52:00,
2013-06-04 17:57:00,58.3,49.7,30.02,ESE,107,5.0,15.0,73,0.01,,-RA,0.01,VWS V14.01,2013-06-04 22:57:00,
2013-06-04 18:02:00,58.3,49.7,30.02,SE,124,3.0,11.0,73,0.00,,-RA,0.01,VWS V14.01,2013-06-04 23:02:00,
2013-06-04 18:07:00,58.3,49.7,30.02,ESE,117,3.0,11.0,73,0.00,,-RA,0.01,VWS V14.01,2013-06-04 23:07:00,
2013-06-04 18:12:00,58.3,49.7,30.02,SE,129,6.0,11.0,73,0.00,,-RA,0.01,VWS V14.01,2013-06-04 23:12:00,
2013-06-04 18:17:00,58.3,49.7,30.02,ESE,107,4.0,11.0,73,0.00,,-RA,0.01,VWS V14.01,2013-06-04 23:17:00,
2013-06-04 18:22:00,58.2,49.6,30.02,ESE,110,7.0,11.0,73,0.00,,-RA,0.01,VWS V14.01,2013-06-04 23:22:00,
2013-06-04 18:27:00,58.2,49.6,30.02,ESE,105,4.0,11.0,73,0.00,,-RA,0.01,VWS V14.01,2013-06-04 23:27:00,
2013-06-04 18:32:00,58.2,50.0,30.02,ESE,113,4.0,5.0,74,0.00,,OVC090,0.01,VWS V14.01,2013-06-04 23:32:00,
2013-06-04 18:37:00,58.3,50.1,30.02,ESE,117,2.0,5.0,74,0.00,,OVC090,0.01,VWS V14.01,2013-06-04 23:37:00,
2013-06-04 18:42:00,58.3,49.7,30.02,ESE,117,2.0,5.0,73,0.00,,OVC090,0.01,VWS V14.01,2013-06-04 23:42:00,
2013-06-04 18:47:00,58.4,49.8,30.02,ESE,116,7.0,7.0,73,0.00,,OVC090,0.01,VWS V14.01,2013-06-04 23:47:00,
2013-06-04 18:52:00,58.4,49.8,30.02,SE,134,4.0,8.0,73,0.00,,-RA,0.01,VWS V14.01,2013-06-04 23:52:00,
2013-06-04 18:57:00,58.4,50.2,30.02,ESE,117,3.0,8.0,74,0.00,,-RA,0.01,VWS V14.01,2013-06-04 23:57:00,
2013-06-04 19:02:00,58.3,50.1,30.02,SE,124,5.0,8.0,74,0.00,,-RA,0.01,VWS V14.01,2013-06-05 00:02:00,
2013-06-04 19:07:00,58.2,50.0,30.02,SE,129,2.0,8.0,74,0.00,,OVC090,0.01,VWS V14.01,2013-06-05 00:07:00,
2013-06-04 19:12:00,58.2,50.3,30.03,SE,128,3.0,8.0,75,0.00,,OVC090,0.01,VWS V14.01,2013-06-05 00:12:00,
2013-06-04 19:17:00,58.1,49.5,30.02,SSE,154,5.0,8.0,73,0.00,,OVC090,0.01,VWS V14.01,2013-06-05 00:17:00,
2013-06-04 19:22:00,58.0,49.4,30.03,SE,139,4.0,8.0,73,0.00,,OVC090,0.01,VWS V14.01,2013-06-05 00:22:00,
2013-06-04 19:27:00,58.0,49.4,30.03,SE,133,3.0,9.0,73,0.00,,OVC090,0.01,VWS V14.01,2013-06-05 00:27:00,
2013-06-04 19:32:00,57.9,49.3,30.03,SE,139,6.0,11.0,73,0.00,,OVC090,0.01,VWS V14.01,2013-06-05 00:32:00,
2013-06-04 19:37:00,57.8,49.6,30.03,ESE,113,4.0,11.0,74,0.00,,OVC090,0.01,VWS V14.01,2013-06-05 00:37:00,
2013-06-04 19:42:00,57.6,49.4,30.04,SE,126,3.0,11.0,74,0.00,,OVC090,0.01,VWS V14.01,2013-06-05 00:42:00,
2013-06-04 19:47:00,57.5,49.7,30.04,ESE,104,2.0,11.0,75,0.00,,OVC090,0.01,VWS V14.01,2013-06-05 00:47:00,
2013-06-04 19:52:00,57.4,49.5,30.04,SE,131,2.0,11.0,75,0.00,,OVC090,0.01,VWS V14.01,2013-06-05 00:52:00,
2013-06-04 19:57:00,57.3,49.8,30.04,SE,134,3.0,11.0,76,0.00,,OVC090,0.01,VWS V14.01,2013-06-05 00:57:00,
2013-06-04 20:02:00,57.2,50.1,30.05,SE,134,1.0,5.0,77,0.00,,OVC090,0.01,VWS V14.01,2013-06-05 01:02:00,
2013-06-04 20:07:00,57.0,49.9,30.05,SE,124,5.0,7.0,77,0.00,,OVC090,0.01,VWS V14.01,2013-06-05 01:07:00,
2013-06-04 20:12:00,57.0,49.9,30.05,ESE,110,4.0,7.0,77,0.00,,OVC090,0.01,VWS V14.01,2013-06-05 01:12:00,
2013-06-04 20:17:00,56.9,50.1,30.06,ESE,118,1.0,7.0,78,0.00,,OVC090,0.01,VWS V14.01,2013-06-05 01:17:00,
2013-06-04 20:22:00,56.7,50.3,30.06,ESE,108,2.0,7.0,79,0.00,,OVC090,0.01,VWS V14.01,2013-06-05 01:22:00,
2013-06-04 20:27:00,56.4,50.3,30.06,ESE,116,2.0,7.0,80,0.01,,OVC090,0.02,VWS V14.01,2013-06-05 01:27:00,
2013-06-04 20:32:00,56.1,50.7,30.06,ESE,108,2.0,3.0,82,0.01,,OVC090,0.02,VWS V14.01,2013-06-05 01:32:00,
2013-06-04 20:37:00,55.7,50.6,30.06,ESE,105,2.0,5.0,83,0.01,,-RA,0.02,VWS V14.01,2013-06-05 01:37:00,
2013-06-04 20:42:00,55.5,50.4,30.06,SE,132,3.0,6.0,83,0.01,,-RA,0.02,VWS V14.01,2013-06-05 01:42:00,
2013-06-04 20:47:00,55.4,50.3,30.07,East,79,2.0,6.0,83,0.02,,-RA,0.03,VWS V14.01,2013-06-05 01:47:00,
2013-06-04 20:52:00,55.2,50.8,30.07,ESE,102,3.0,6.0,85,0.02,,OVC025,0.03,VWS V14.01,2013-06-05 01:52:00,
2013-06-04 20:57:00,54.9,50.5,30.07,ENE,71,3.0,6.0,85,0.02,,OVC025,0.03,VWS V14.01,2013-06-05 01:57:00,
2013-06-04 21:02:00,54.8,50.7,30.07,East,85,1.0,5.0,86,0.02,,OVC025,0.03,VWS V14.01,2013-06-05 02:02:00,
2013-06-04 21:07:00,54.7,50.6,30.08,East,79,0.0,5.0,86,0.02,,OVC025,0.03,VWS V14.01,2013-06-05 02:07:00,
2013-06-04 21:12:00,54.5,51.0,30.09,NNW,347,0.0,5.0,88,0.03,,OVC025,0.04,VWS V14.01,2013-06-05 02:12:00,
2013-06-04 21:17:00,54.2,51.0,30.09,NNW,347,0.0,5.0,89,0.03,,OVC025,0.04,VWS V14.01,2013-06-05 02:17:00,
2013-06-04 21:22:00,54.0,51.1,30.09,North,8,1.0,5.0,90,0.04,,OVC025,0.05,VWS V14.01,2013-06-05 02:22:00,
2013-06-04 21:27:00,53.8,50.9,30.09,North,1,0.0,5.0,90,0.06,,OVC025,0.07,VWS V14.01,2013-06-05 02:27:00,
2013-06-04 21:32:00,53.6,51.0,30.09,East,96,3.0,4.0,91,0.06,,-RA,0.08,VWS V14.01,2013-06-05 02:32:00,
2013-06-04 21:37:00,53.3,51.0,30.09,East,101,3.0,4.0,92,0.08,,-RA,0.10,VWS V14.01,2013-06-05 02:37:00,
2013-06-04 21:42:00,53.1,51.1,30.08,ESE,109,6.0,7.0,93,0.09,,-RA,0.11,VWS V14.01,2013-06-05 02:42:00,
2013-06-04 21:47:00,53.0,51.0,30.07,ESE,117,8.0,8.0,93,0.10,,-RA,0.12,VWS V14.01,2013-06-05 02:47:00,
2013-06-04 21:52:00,52.8,51.1,30.07,SE,128,6.0,8.0,94,0.11,,OVC075,0.13,VWS V14.01,2013-06-05 02:52:00,
2013-06-04 21:57:00,52.6,50.9,30.07,East,99,6.0,12.0,94,0.13,,OVC075,0.15,VWS V14.01,2013-06-05 02:57:00,
2013-06-04 22:02:00,52.5,50.8,30.07,ESE,110,3.0,7.0,94,0.13,,OVC075,0.16,VWS V14.01,2013-06-05 03:02:00,
2013-06-04 22:07:00,52.5,51.1,30.07,ESE,122,3.0,7.0,95,0.15,,OVC075,0.18,VWS V14.01,2013-06-05 03:07:00,
2013-06-04 22:12:00,52.4,51.0,30.07,ESE,107,4.0,8.0,95,0.17,,OVC075,0.20,VWS V14.01,2013-06-05 03:12:00,
2013-06-04 22:17:00,52.4,51.0,30.07,ESE,107,6.0,9.0,95,0.19,,OVC075,0.22,VWS V14.01,2013-06-05 03:17:00,
2013-06-04 22:22:00,52.4,51.0,30.05,ESE,113,12.0,12.0,95,0.20,,OVC075,0.23,VWS V14.01,2013-06-05 03:22:00,
2013-06-04 22:27:00,52.3,50.9,30.03,ESE,122,14.0,16.0,95,0.23,,OVC075,0.26,VWS V14.01,2013-06-05 03:27:00,
2013-06-04 22:32:00,52.2,50.8,30.02,East,101,12.0,16.0,95,0.20,,-RA,0.27,VWS V14.01,2013-06-05 03:32:00,
2013-06-04 22:37:00,52.2,51.1,30.03,SE,125,4.0,16.0,96,0.22,,-RA,0.29,VWS V14.01,2013-06-05 03:37:00,
2013-06-04 22:42:00,52.2,51.1,30.03,ESE,110,14.0,16.0,96,0.22,,-RA,0.29,VWS V14.01,2013-06-05 03:42:00,
2013-06-04 22:47:00,52.3,51.2,30.03,ESE,120,7.0,16.0,96,0.23,,-RA,0.30,VWS V14.01,2013-06-05 03:47:00,
2013-06-04 22:52:00,52.3,51.2,30.03,ESE,121,5.0,16.0,96,0.24,,-RA,0.31,VWS V14.01,2013-06-05 03:52:00,
2013-06-04 22:57:00,52.4,51.3,30.02,ESE,110,6.0,16.0,96,0.24,,-RA,0.31,VWS V14.01,2013-06-05 03:57:00,
2013-06-04 23:01:00,52.4,51.3,30.02,SE,136,3.0,10.0,96,0.17,,-RA,0.32,VWS V14.01,2013-06-05 04:01:00,
2013-06-04 23:06:00,52.4,51.3,30.03,SE,133,2.0,10.0,96,0.19,,-RA,0.34,VWS V14.01,2013-06-05 04:06:00,
2013-06-04 23:11:00,52.5,51.4,30.03,SE,136,1.0,10.0,96,0.20,,-RA,0.35,VWS V14.01,2013-06-05 04:11:00,
2013-06-04 23:16:00,52.5,51.4,30.04,ESE,117,3.0,10.0,96,0.20,,-RA,0.35,VWS V14.01,2013-06-05 04:16:00,
2013-06-04 23:21:00,52.6,51.5,30.03,SE,132,4.0,10.0,96,0.20,,-RA,0.35,VWS V14.01,2013-06-05 04:21:00,
2013-06-04 23:26:00,52.6,51.5,30.04,SE,131,2.0,10.0,96,0.20,,-RA,0.35,VWS V14.01,2013-06-05 04:26:00,
2013-06-04 23:32:00,52.6,51.5,30.04,ESE,105,5.0,7.0,96,0.09,,-RA,0.35,VWS V14.01,2013-06-05 04:32:00,
2013-06-04 23:37:00,52.8,51.7,30.03,ESE,106,6.0,9.0,96,0.09,,OVC008,0.35,VWS V14.01,2013-06-05 04:37:00,
2013-06-04 23:42:00,52.8,51.7,30.03,ESE,120,2.0,10.0,96,0.09,,OVC008,0.35,VWS V14.01,2013-06-05 04:42:00,
2013-06-04 23:47:00,52.8,51.4,30.04,SE,129,5.0,10.0,95,0.09,,OVC008,0.35,VWS V14.01,2013-06-05 04:47:00,
2013-06-04 23:52:00,52.9,51.5,30.04,SE,128,5.0,10.0,95,0.09,,OVC013,0.35,VWS V14.01,2013-06-05 04:52:00,
2013-06-04 23:57:00,52.9,51.5,30.03,ESE,117,4.0,10.0,95,0.09,,OVC013,0.35,VWS V14.01,2013-06-05 04:57:00,